[Iaude] MPEC S33: 2019 SC1 [a=1.52,e=0.33,i=24.7,H=22.9]

mpec at marsden.cfa.harvard.edu mpec at marsden.cfa.harvard.edu
Sat Sep 21 01:29:06 EDT 2019


M.P.E.C. 2019-S33                            Issued 2019 September 21, 05:27 UT

     The Minor Planet Electronic Circulars contain information on unusual
         minor planets and routine data on comets.  They are published
    on behalf of Division F of the International Astronomical Union by the
          Minor Planet Center, Smithsonian Astrophysical Observatory,
                          Cambridge, MA 02138, U.S.A.

             Prepared using the Tamkin Foundation Computer Network

                              MPC at CFA.HARVARD.EDU
            URL https://www.minorplanetcenter.net/    ISSN 1523-6714

                                    2019 SC1                                    


Observations:
     K19S01C  C2019 09 19.43235522 06 16.611-02 23 05.08         19.9 GVES033F51
     K19S01C  C2019 09 19.44368222 06 11.953-02 21 40.61         20.0 GVES033F51
     K19S01C* C2019 09 20.16556 22 01 32.42 -00 52 10.7          20.1 GVES033G96
     K19S01C  C2019 09 20.17120 22 01 30.10 -00 51 28.5          20.1 GVES033G96
     K19S01C  C2019 09 20.17684 22 01 27.80 -00 50 46.2          20.1 GVES033G96
     K19S01C  C2019 09 20.18248 22 01 25.50 -00 50 03.8          19.8 GVES033G96
     K19S01C  C2019 09 20.36592 22 00 10.62 -00 27 08.6          20.0 GVES033I52
     K19S01C  C2019 09 20.36757 22 00 09.98 -00 26 56.4          20.5 GVES033I52
     K19S01C  C2019 09 20.36804 22 00 09.81 -00 26 52.2          20.1 GVES033I52
     K19S01C  C2019 09 20.36852 22 00 09.54 -00 26 48.0          20.7 GVES033I52
     K19S01C IC2019 09 20.81525421 57 17.90 +00 29 01.8          20.7 GVES033L01
     K19S01C KC2019 09 20.81700421 57 17.21 +00 29 15.6          20.6 GVES033L01
     K19S01C KC2019 09 20.81875021 57 16.47 +00 29 29.0          20.7 GVES033L01
     K19S01C pC2019 09 20.81984721 57 16.04 +00 29 36.9          21.0 GVES033L01
     K19S01C KC2019 09 20.83434621 57 10.60 +00 31 21.2          20.8 GVES033J95
     K19S01C KC2019 09 20.84452821 57 06.47 +00 32 37.4          21.1 GVES033J95
     K19S01C KC2019 09 20.91889 21 56 35.86 +00 42 04.5          19.9 GVES033104
     K19S01C KC2019 09 20.92636 21 56 32.82 +00 43 00.7          20.0 GVES033104
     K19S01C KC2019 09 20.93382 21 56 29.79 +00 43 57.1                VES033104
     K19S01C KC2019 09 21.04703 21 55 47.78 +00 58 17.1          19.9 GVES033W34
     K19S01C KC2019 09 21.05991 21 55 42.55 +00 59 54.3          19.9 GVES033W34
     K19S01C KC2019 09 21.08481 21 55 32.39 +01 03 02.9          19.7 GVES033W34
     K19S01C KC2019 09 21.13157621 55 13.54 +01 08 53.1          20.5 VuES033H21
     K19S01C KC2019 09 21.13855921 55 10.69 +01 09 45.9          20.6 VuES033H21
     K19S01C KC2019 09 21.14577421 55 07.74 +01 10 40.4          20.3 VuES033H21

Observer details:
104 San Marcello Pistoiese.  Observers P. Bacci, M. Maestripieri, M. D. Grazia. 
    Measurers P. Bacci, L. Tesi, G. Fagioli.  0.60-m reflector + CCD.
F51 Pan-STARRS 1, Haleakala.  Observers J. Bulger, K. Chambers, T. Lowe, E. 
   Magnier, A. Schultz, M. Willman.  Measurers S. Chastel, M. Huber, Y. 
   Ramanjooloo, R. Wainscoat, R. Weryk.  1.8-m Ritchey-Chretien + CCD.
G96 Mt. Lemmon Survey.  Observer G. J. Leonard.  Measurers B. M. Africano, E. 
   J. Christensen, G. A. Farneth, D. C. Fuls, A. R. Gibbs, A. D. Grauer, H. 
   Groeller, R. A. Kowalski, S. M. Larson, G. J. Leonard, T. A. Pruyne, D. 
   Rankin, R. L. Seaman, F. C. Shelly.  1.5-m reflector + 10K CCD.
H21 Astronomical Research Observatory, Westfield.  Observer R. Holmes.  
    Measurers S. Foglia, L. Buzzi, T. Linder, R. Holmes.  0.81-m f/4.0 
   astrograph + CCD.
I52 Steward Observatory, Mt. Lemmon Station.  Observer D. C. Fuls.  Measurers 
   B. M. Africano, E. J. Christensen, G. A. Farneth, D. C. Fuls, A. R. Gibbs, 
   A. D. Grauer, H. Groeller, R. A. Kowalski, S. M. Larson, G. J. Leonard, T. 
   A. Pruyne, D. Rankin, R. L. Seaman, F. C. Shelly.  1.0-m reflector + CCD.
J95 Great Shefford.  Observer P. Birtwhistle.  0.41-m f/6.3 Schmidt-Cassegrain 
   + CCD.
L01 Visnjan Observatory, Tican.  Observers K. Korlevic, I. Lyon.  Measurer K. 
   Korlevic.  1.0-m f/2.9 reflector + CCD.
W34 Squirrel Valley Observatory, Columbus.  Observer R. L. Flynn.  0.35-m f/1.9 
   Schmidt-Cassegrain + CCD.

Orbital elements:
2019 SC1                                                 Earth MOID = 0.1467 AU
Epoch 2019 Apr. 27.0 TT = JDT 2458600.5                 Veres
M 252.76798              (2000.0)            P               Q
n   0.52562888     Peri.   61.93770     +0.60344850     -0.79405115
a   1.5206055      Node   349.92542     +0.50232236     +0.44966771
e   0.3278092      Incl.   24.67395     +0.61929166     +0.40900088
P   1.88           H   22.9           G   0.15           U   8
Residuals in seconds of arc
190919 F51  0.2+  0.3-    190920 I52  0.4-  1.3+    190920 104  0.4+  0.6+
190919 F51  0.2-  0.2+    190920 L01  0.2+  0.1+    190921 W34  0.5-  0.1+
190920 G96  0.3-  0.2+    190920 L01  0.5+  0.7+    190921 W34  0.4-  0.0
190920 G96  0.5-  0.2+    190920 L01  0.0   0.9+    190921 W34  0.5-  0.5+
190920 G96  0.4-  0.3+    190920 L01  0.2+  0.6+    190921 H21  0.2-  0.6+
190920 G96  0.3-  0.4+    190920 J95  0.2+  0.6-    190921 H21  0.2-  0.6+
190920 I52  0.0   0.2+    190920 J95  0.1-  1.2-    190921 H21  0.2-  0.6+
190920 I52  0.4+  0.0     190920 104  0.3+  0.6+
190920 I52  0.7+  0.7+    190920 104  0.3+  0.4+

Ephemeris:
2019 SC1                 a,e,i = 1.52, 0.33, 25                  q = 1.0221
Date    TT    R. A. (2000) Decl.     Delta      r    Elong.  Phase     V
2019 08 22    00 15 10.6 -33 28 54   0.3292  1.2895   142.9    28.3    22.3
...
2019 09 06    23 24 47.2 -23 56 18   0.2204  1.2193   161.5    15.2    20.9
...
2019 09 14    22 40 48.3 -12 47 00   0.1824  1.1837   165.7    12.1    20.3
...
2019 09 20    22 02 36.4 -01 12 27   0.1687  1.1583   153.9    22.4    20.4
2019 09 21    21 56 04.9 +00 52 45   0.1678  1.1542   151.3    24.7    20.5
2019 09 22    21 49 33.8 +02 58 49   0.1674  1.1502   148.6    27.0    20.5
...
2019 09 28    21 11 34.7 +15 12 16   0.1730  1.1266   132.6    40.9    21.0
...
2019 10 06    20 27 40.3 +28 17 33   0.1980  1.0980   114.9    55.7    21.6
...
2019 10 21    19 30 44.3 +42 34 52   0.2684  1.0548    95.3    70.0    22.6

A. U. Tomatic                (C) Copyright 2019 MPC           M.P.E.C. 2019-S33




More information about the Iaude mailing list